Temperature
5 5 5 5 5 5 5 5 5 5 5 5 4 3 3 3 3 3 3 3 3 3 3 3 4 4 4 4 5 5 5 5 5 5 6 6 6 7 7 7 7 7 7 7
5 5 5 5 5 5 5 5 5 5 5 5 4 4 3 3 3 3 3 3 3 3 3 3 3 3 4 4 4 4 4 4 4 5 5 5 5 5 6 6 6 6 6 6
5 5 6 5 5 5 5 5 5 5 5 4 4 3 3 3 3 3 3 3 3 3 3 3 3 3 3 3 3 3 3 4 4 4 4 4 4 5 5 5 5 5 5 5
4 5 5 6 6 5 5 5 5 5 4 4 4 4 4 4 4 3 3 3 3 3 3 3 2 2 3 3 3 3 3 3 3 3 3 4 4 4 4 4 4 4 4 4
4 4 4 6 6 5 5 6 5 4 4 4 4 4 4 4 4 4 3 3 3 3 3 2 2 2 2 2 2 2 2 2 2 2 2 2 3 3 3 3 3 3 3 3
4 5 6 6 6 6 6 5 5 4 3 3 3 3 3 4 4 4 3 3 3 3 2 2 2 2 2 2 2 2 1 1 1 1 1 2 2 2 2 2 2 2 2 2
4 4 4 5 5 6 6 6 6 5 5 4 3 4 5 5 4 4 3 3 3 2 2 2 2 2 2 1 1 1 1 1 1 1 1 1 1 1 1 1 1 1 1 1
3 4 4 5 5 5 5 6 6 6 6 5 5 5 5 4 4 3 3 3 2 2 2 1 1 1 1 1 0 0 0 0 0 0 0 0 -0 -0 -0 -0 -0 -0 0 0
3 4 5 5 6 7 6 6 7 7 7 6 5 5 5 4 4 3 3 3 2 2 1 1 1 0 0 0 -0 -0 0 0 -0 -0 -0 -1 -1 -1 -1 -1 -1 -1 -1 -1
1 2 4 5 6 7 7 7 7 7 6 6 6 5 5 4 4 3 3 2 2 1 1 1 0 0 -0 -0 -1 -1 -1 -1 -1 -1 -1 -1 -2 -2 -2 -2 -3 -3 -3 -3
1 2 3 6 7 7 7 7 7 6 6 6 5 5 5 4 3 3 3 2 1 1 1 0 -0 -0 -1 -1 -1 -1 -1 -2 -2 -2 -2 -2 -2 -3 -3 -3 -4 -4 -5 -5
3 4 3 6 7 7 7 7 6 6 6 6 5 5 4 4 3 3 2 2 1 1 0 -0 -1 -1 -1 -1 -2 -2 -2 -2 -3 -3 -3 -3 -3 -3 -3 -4 -4 -4 -5 -5
5 6 5 6 6 6 6 6 6 6 5 5 5 4 4 3 3 2 2 1 1 0 -0 -1 -1 -1 -2 -2 -2 -3 -3 -3 -4 -4 -4 -4 -4 -4 -4 -4 -4 -4 -5 -5
5 5 4 5 5 6 5 5 5 5 5 5 4 4 3 3 2 2 2 1 0 -0 -1 -1 -2 -2 -2 -3 -3 -3 -4 -4 -4 -5 -5 -5 -5 -6 -6 -6 -5 -5 -5 -5
4 4 4 4 5 5 5 5 4 4 4 4 4 3 3 2 2 2 1 0 -0 -1 -1 -2 -2 -2 -3 -3 -3 -4 -4 -4 -5 -5 -5 -6 -6 -6 -6 -7 -7 -7 -6 -6
4 4 3 4 4 4 4 4 4 4 4 4 3 3 2 2 1 1 0 -0 -1 -1 -2 -2 -3 -3 -3 -4 -4 -4 -4 -5 -5 -6 -6 -6 -6 -7 -7 -7 -7 -7 -7 -7
2 2 3 3 3 3 3 3 3 4 3 3 3 2 2 1 1 0 -0 -1 -1 -2 -2 -3 -3 -3 -4 -4 -4 -5 -5 -5 -6 -6 -6 -7 -7 -7 -8 -8 -8 -8 -8 -8
2 3 3 3 3 3 3 3 3 3 3 2 2 2 1 1 1 0 -1 -1 -2 -2 -3 -3 -3 -4 -4 -5 -5 -5 -6 -6 -6 -7 -7 -7 -8 -8 -8 -8 -8 -8 -8 -8
3 3 3 3 3 2 3 2 2 2 2 2 1 1 1 0 -0 -1 -1 -2 -2 -3 -3 -3 -4 -4 -5 -5 -6 -6 -6 -7 -7 -7 -8 -8 -8 -8 -9 -9 -9 -9 -9 -9
3 3 3 3 3 2 2 2 2 2 2 1 1 0 -0 -0 -1 -1 -2 -2 -3 -3 -3 -4 -4 -5 -5 -6 -6 -7 -7 -7 -8 -8 -8 -8 -9 -9 -9 -9 -9 -9 -9 -9
3 3 3 3 3 2 2 2 1 1 1 1 0 -0 -1 -1 -1 -2 -2 -3 -3 -4 -4 -4 -5 -5 -6 -7 -7 -7 -8 -8 -8 -8 -9 -9 -9 -9 -9 -10 -10 -10 -10 -10
2 2 2 2 2 2 1 1 1 1 0 -0 -0 -1 -1 -2 -2 -2 -3 -3 -4 -4 -4 -5 -5 -6 -7 -7 -7 -8 -8 -8 -9 -9 -9 -10 -10 -10 -10 -10 -10 -10 -10 -10
2 2 2 1 1 1 1 1 0 0 -0 -1 -1 -1 -2 -2 -2 -3 -3 -4 -4 -5 -5 -5 -6 -6 -7 -7 -8 -8 -8 -9 -9 -9 -10 -10 -10 -10 -10 -10 -10 -10 -10 -10
1 1 1 1 1 0 0 0 -0 -1 -1 -1 -2 -2 -2 -3 -3 -3 -4 -4 -5 -5 -5 -6 -6 -7 -7 -8 -8 -8 -9 -9 -9 -9 -10 -10 -10 -10 -10 -10 -10 -10 -10 -10
1 1 1 1 0 0 -0 -1 -1 -1 -2 -2 -2 -3 -3 -3 -4 -4 -4 -5 -5 -6 -6 -6 -7 -7 -8 -8 -8 -9 -9 -9 -10 -10 -10 -10 -10 -10 -10 -10 -10 -10 -10 -10
1 0 0 0 -0 -0 -1 -1 -1 -2 -2 -2 -3 -3 -3 -4 -4 -5 -5 -5 -6 -6 -6 -7 -7 -8 -8 -8 -9 -9 -9 -9 -10 -10 -10 -10 -10 -10 -10 -10 -10 -10 -10 -10
0 -0 -0 -0 -0 -1 -1 -1 -2 -2 -2 -3 -3 -4 -4 -4 -5 -5 -5 -6 -6 -6 -7 -7 -8 -8 -8 -8 -9 -9 -9 -10 -10 -10 -10 -10 -10 -10 -10 -10 -10 -10 -10 -10
Wind_Speed
2 3 2 2 2 2 2 2 3 2 2 4 2 1 2 3 5 6 8 9 10 10 10 11 12 12 12 12 12 12 13 14 13 12 12 12 12 12 11 10 9 7 7 6
3 3 3 2 3 1 1 1 2 1 3 2 0 2 2 3 4 5 6 7 8 8 9 10 10 11 11 12 12 12 13 13 12 12 12 12 11 11 11 10 9 9 8 7
4 6 4 4 3 1 1 2 3 3 3 1 1 0 1 1 2 2 4 5 6 6 7 7 8 9 9 9 10 11 12 11 11 11 11 10 10 10 10 9 9 9 8 7
3 5 2 5 1 3 2 3 4 4 3 3 3 2 0 0 1 1 2 3 4 5 6 6 7 7 8 9 10 11 11 11 10 10 10 10 10 10 9 8 8 7 8 7
1 2 6 6 2 2 2 4 4 5 3 3 2 2 2 1 2 1 1 1 2 3 3 5 7 7 8 9 9 10 10 10 9 9 8 9 9 8 7 7 7 6 6 7
1 1 4 4 1 1 2 5 4 5 6 5 4 1 3 2 3 2 2 2 2 3 4 6 6 6 7 8 9 9 9 8 8 8 8 8 8 7 6 6 6 6 7 6
2 4 7 6 2 2 2 5 2 5 6 7 6 5 2 4 3 3 3 3 3 4 4 5 5 6 7 7 8 7 7 6 7 7 7 7 7 6 7 7 7 7 6 6
3 3 7 3 3 5 6 3 2 4 5 7 5 3 3 4 4 4 3 3 3 4 4 4 5 5 6 6 6 6 6 7 7 8 7 7 6 6 6 6 7 7 7 7
7 8 5 4 7 5 4 4 4 4 5 6 6 5 4 4 4 3 3 2 2 3 3 4 4 4 5 6 6 6 7 7 7 7 7 7 6 7 6 6 6 6 6 7
6 8 7 8 7 6 5 5 4 4 5 7 6 6 6 5 4 3 3 2 2 2 2 3 4 4 3 5 6 6 7 7 7 7 8 7 6 5 5 6 6 6 7 7
7 8 8 7 7 7 5 4 3 3 5 7 7 6 6 5 5 4 3 2 2 2 1 1 3 4 4 5 5 5 6 6 7 6 7 7 6 5 6 5 6 7 6 7
9 8 6 7 5 4 5 5 6 5 4 4 6 7 6 5 5 4 3 2 2 1 0 1 2 3 4 4 4 4 5 5 5 5 5 6 6 7 9 9 13 13 13 12
8 5 5 7 5 4 5 6 6 7 7 6 5 6 6 5 4 4 4 3 2 2 1 1 2 3 4 4 4 4 4 5 4 5 5 6 6 7 8 10 12 12 14 15
8 5 6 6 6 5 5 4 4 4 4 5 6 5 5 5 4 5 4 3 3 2 1 1 2 3 4 4 4 4 4 6 5 5 5 6 6 7 7 9 10 9 11 15
7 7 8 6 5 4 3 3 4 5 5 5 5 6 7 7 6 5 3 3 2 1 1 1 2 3 4 3 4 4 4 4 5 5 5 6 6 7 7 8 8 9 9 10
6 5 6 6 7 6 4 5 7 7 7 6 6 7 7 6 5 4 3 3 2 1 1 2 2 3 3 3 4 4 4 8 8 6 6 6 6 7 7 8 8 8 9 9
5 6 6 6 7 7 7 8 8 7 7 8 8 7 6 6 5 4 3 2 2 2 1 1 3 3 3 3 3 3 4 6 9 7 6 6 7 7 7 8 8 8 8 11
10 10 9 8 8 7 7 6 6 7 7 7 7 7 7 7 6 5 3 2 1 1 1 2 2 2 2 3 3 3 4 4 5 6 6 6 7 6 7 8 9 10 9 10
7 8 8 8 8 7 6 6 6 6 6 7 8 8 6 5 5 4 3 3 2 2 2 2 3 2 3 4 5 3 4 5 5 6 6 9 8 7 7 8 8 9 9 9
4 4 4 4 4 4 5 5 5 5 6 7 7 7 6 5 4 4 4 3 3 2 2 2 2 2 3 4 5 2 4 5 5 6 6 6 7 7 7 8 9 9 9 8
3 2 2 2 1 2 3 5 6 6 6 7 7 7 6 5 4 4 3 3 2 2 2 2 1 2 3 4 4 2 3 5 5 5 6 6 7 7 8 8 9 9 9 9
2 2 2 2 2 1 1 3 4 6 6 6 6 6 6 5 4 3 3 3 2 2 1 1 2 4 6 5 2 2 4 5 5 5 5 6 7 7 8 8 8 8 8 8
3 3 3 3 3 2 2 2 4 5 6 6 6 6 6 4 4 3 3 2 1 2 1 1 4 7 7 3 2 3 4 5 5 5 6 6 7 7 7 8 8 8 8 8
4 3 3 2 3 3 3 3 3 4 4 4 4 5 5 4 2 2 2 2 2 2 1 3 6 6 6 1 2 3 4 5 5 6 6 6 6 6 7 7 8 8 8 8
4 4 4 5 5 4 4 4 4 4 4 3 4 4 3 3 3 3 2 2 2 2 1 3 5 6 3 2 3 4 4 5 6 6 5 5 6 6 7 7 7 7 7 7
5 5 5 5 5 4 5 5 4 4 4 4 3 3 3 3 3 2 2 1 2 2 1 2 3 4 2 3 4 4 5 6 6 6 6 6 7 7 7 7 8 7 7 8
4 4 3 3 4 5 5 5 5 5 5 5 4 4 4 3 3 2 2 1 1 1 2 2 2 3 3 3 4 4 4 5 5 6 6 6 6 6 7 8 7 7 7 8
Wind_Direction
272 285 287 315 336 47 116 172 181 221 249 287 304 339 11 22 24 27 26 26 27 25 22 22 22 22 24 27 28 33 39 41 38 35 35 35 35 34 34 33 32 29 29 24
319 326 328 336 332 5 118 137 163 169 279 288 71 88 51 25 28 28 20 21 25 26 24 23 21 20 24 26 25 31 37 35 32 33 34 32 31 30 32 31 28 28 28 23
305 316 343 312 281 229 206 204 176 206 236 185 137 164 298 340 17 16 13 19 24 24 22 21 19 19 23 23 26 33 35 31 29 29 31 28 27 28 27 23 24 23 19 18
322 5 299 260 268 195 209 248 220 232 232 191 197 189 149 166 161 3 11 18 17 16 17 17 18 20 23 29 31 31 30 26 23 24 25 21 24 23 17 15 17 15 10 6
30 320 288 300 264 176 191 283 225 214 214 171 139 69 335 258 162 156 82 52 25 16 20 21 19 15 28 31 29 29 24 18 15 17 20 19 19 12 8 9 10 6 1 359
116 289 267 273 278 190 96 299 245 192 193 172 140 165 267 193 146 126 95 77 58 38 37 31 14 16 37 29 26 20 10 5 6 12 15 13 8 3 0 3 359 357 356 353
200 243 269 261 255 120 151 266 259 187 189 176 190 210 195 142 134 125 106 84 69 56 42 21 9 26 35 26 14 356 352 359 5 7 6 3 1 359 355 355 353 352 346 342
181 221 261 240 146 184 223 257 224 194 188 186 196 162 141 143 136 123 104 79 68 59 36 16 16 29 28 11 348 346 355 3 2 360 0 0 357 353 351 351 349 345 342 338
203 223 245 220 219 239 212 225 224 202 198 180 178 180 172 161 150 138 126 103 78 76 45 18 15 26 20 348 344 352 1 0 354 353 354 354 353 349 348 350 348 341 339 333
265 265 257 252 251 252 227 222 226 204 187 174 181 182 175 167 160 156 148 137 119 96 56 12 4 12 1 345 351 359 358 353 351 351 348 347 347 343 341 338 335 333 330 325
260 275 292 275 242 241 239 226 215 196 185 182 177 179 177 174 174 171 160 148 132 125 101 348 354 356 352 351 357 357 351 347 346 344 338 335 333 327 325 310 315 320 316 312
236 235 221 257 264 233 222 225 210 193 188 183 180 180 171 173 172 165 162 152 139 139 145 326 345 342 341 344 352 351 345 341 336 332 329 328 327 326 325 324 323 323 321 317
242 260 238 260 271 236 224 227 214 198 190 184 181 173 167 169 167 160 159 163 176 194 220 296 333 331 332 336 342 343 331 326 323 325 326 325 326 326 325 325 325 325 326 325
247 255 268 255 252 251 233 226 203 190 186 174 167 158 154 153 154 164 178 187 182 177 206 285 314 321 323 328 333 329 320 321 324 315 316 318 319 318 317 320 322 322 325 327
247 229 241 261 266 257 228 189 181 192 182 171 160 159 160 165 174 181 179 163 149 156 226 279 304 311 320 327 331 325 321 317 317 315 316 316 316 317 316 316 316 317 320 324
271 263 248 243 243 240 220 207 206 209 195 183 176 176 173 167 161 156 153 151 156 206 248 271 292 305 317 328 329 324 321 327 330 324 321 321 320 320 320 319 318 318 319 320
249 256 243 242 240 236 225 220 215 210 195 188 187 172 155 147 147 158 167 171 182 213 238 267 293 310 323 326 322 320 319 323 330 327 319 318 317 316 316 316 315 314 312 315
233 241 240 237 237 236 232 219 207 198 195 188 165 156 161 169 179 183 179 162 151 214 259 277 292 316 322 320 319 316 319 318 318 316 316 314 312 311 312 312 313 313 313 314
251 247 245 239 230 220 215 210 200 189 174 161 162 170 175 177 174 169 159 160 186 237 270 282 317 334 318 317 328 317 319 316 315 315 314 315 318 314 311 310 311 312 314 316
262 257 247 240 223 205 200 191 175 167 165 161 158 159 165 171 166 164 168 192 213 229 260 290 317 309 306 304 323 313 313 312 312 313 314 312 311 311 311 312 313 313 314 315
265 261 237 216 215 196 181 173 167 167 163 160 165 172 174 171 168 167 176 213 235 236 256 299 314 296 294 306 324 320 315 312 310 308 309 310 310 310 310 311 313 314 314 314
238 227 213 186 164 163 158 156 159 156 153 156 160 159 160 168 173 183 201 206 217 249 253 245 265 293 307 321 328 315 309 307 305 303 304 305 307 308 309 311 311 310 309 308
222 212 203 195 182 168 145 150 160 161 165 168 170 172 175 177 177 184 217 215 221 262 269 250 290 305 315 336 316 303 303 302 300 300 300 302 303 305 306 306 305 306 306 307
210 203 195 174 151 158 181 186 166 160 160 162 169 169 164 166 187 201 193 213 241 271 261 285 301 307 321 337 298 295 295 295 294 295 297 300 301 302 302 302 303 304 304 304
206 197 185 177 186 198 193 169 154 155 155 160 166 168 169 171 180 182 174 202 248 281 285 294 302 311 320 292 287 289 290 289 292 297 296 299 299 300 300 300 301 302 302 302
204 205 206 205 199 188 174 170 178 181 176 176 181 179 170 161 158 157 164 191 232 271 280 281 291 299 293 286 284 285 286 295 303 303 296 295 295 296 297 301 301 300 299 298
202 202 198 205 203 189 180 180 186 192 190 185 186 180 173 166 164 171 177 196 227 250 262 271 278 281 283 283 284 284 286 289 292 293 292 290 290 292 295 296 297 297 297 296
Height
1480 1478 1476 1475 1472 1471 1472 1473 1474 1472 1471 1468 1467 1466 1466 1464 1463 1460 1458 1455 1452 1450 1447 1444 1441 1438 1436 1433 1431 1430 1428 1426 1426 1426 1426 1426 1426 1426 1426 1427 1428 1429 1429 1429
1480 1476 1476 1474 1471 1470 1471 1471 1472 1471 1470 1466 1466 1466 1466 1465 1464 1462 1460 1459 1456 1454 1451 1449 1446 1443 1441 1438 1436 1434 1432 1430 1430 1429 1428 1428 1428 1428 1427 1427 1427 1427 1428 1428
1483 1480 1474 1474 1470 1469 1469 1469 1469 1469 1468 1467 1467 1467 1466 1466 1465 1464 1462 1461 1459 1457 1455 1453 1450 1448 1445 1443 1441 1438 1436 1435 1433 1432 1432 1431 1430 1429 1428 1427 1427 1426 1426 1426
1487 1482 1482 1473 1467 1468 1468 1467 1467 1466 1465 1466 1466 1466 1466 1466 1465 1465 1464 1462 1461 1459 1457 1455 1453 1451 1449 1446 1444 1441 1439 1438 1436 1435 1433 1432 1431 1429 1428 1427 1426 1425 1425 1424
1489 1488 1481 1470 1467 1467 1468 1466 1464 1464 1464 1465 1466 1466 1466 1466 1465 1465 1465 1464 1462 1461 1459 1458 1455 1453 1451 1448 1446 1444 1442 1440 1438 1437 1435 1433 1431 1430 1428 1427 1425 1424 1423 1422
1489 1484 1477 1469 1466 1465 1468 1467 1462 1462 1463 1464 1466 1469 1467 1465 1465 1465 1465 1464 1463 1462 1461 1459 1457 1455 1453 1450 1447 1445 1444 1442 1440 1438 1436 1434 1432 1430 1428 1426 1424 1423 1421 1420
1488 1486 1478 1468 1465 1466 1472 1466 1460 1460 1461 1462 1463 1464 1464 1464 1464 1464 1464 1464 1463 1462 1461 1459 1457 1456 1453 1451 1449 1447 1445 1443 1441 1438 1436 1434 1432 1430 1427 1425 1423 1421 1419 1418
1488 1486 1478 1464 1464 1466 1464 1459 1458 1458 1459 1460 1461 1462 1462 1463 1463 1464 1464 1463 1463 1462 1461 1459 1458 1456 1454 1451 1450 1448 1446 1443 1441 1438 1436 1433 1431 1428 1426 1423 1421 1418 1416 1414
1479 1472 1463 1460 1459 1458 1458 1457 1457 1457 1457 1458 1459 1460 1461 1462 1462 1463 1463 1463 1462 1461 1460 1459 1457 1456 1453 1452 1449 1447 1445 1443 1440 1438 1435 1433 1430 1427 1424 1422 1419 1416 1414 1411
1473 1463 1458 1457 1456 1455 1455 1455 1455 1455 1456 1456 1457 1458 1459 1460 1461 1461 1461 1461 1460 1460 1459 1458 1456 1455 1453 1451 1448 1446 1444 1441 1439 1436 1434 1431 1429 1426 1423 1420 1417 1414 1411 1408
1469 1460 1455 1452 1452 1452 1452 1452 1452 1453 1453 1454 1455 1455 1457 1457 1458 1459 1459 1459 1459 1458 1457 1456 1455 1453 1451 1449 1447 1445 1442 1440 1437 1434 1432 1429 1426 1424 1421 1418 1416 1412 1409 1406
1459 1452 1453 1449 1449 1449 1449 1449 1449 1449 1450 1451 1452 1452 1454 1455 1456 1456 1457 1457 1456 1456 1455 1454 1452 1451 1449 1447 1445 1442 1440 1437 1435 1432 1429 1426 1423 1421 1418 1416 1413 1410 1407 1404
1450 1449 1448 1446 1446 1446 1446 1446 1446 1446 1447 1448 1449 1450 1451 1452 1453 1453 1454 1454 1454 1453 1452 1451 1450 1448 1447 1445 1443 1440 1438 1435 1432 1430 1427 1423 1420 1417 1413 1411 1409 1406 1403 1399
1446 1446 1444 1442 1442 1442 1442 1442 1442 1443 1443 1445 1446 1447 1448 1449 1450 1451 1451 1451 1451 1450 1449 1448 1447 1446 1444 1442 1440 1438 1436 1433 1430 1427 1424 1421 1418 1414 1411 1407 1403 1400 1398 1395
1441 1441 1440 1438 1438 1437 1437 1437 1438 1438 1440 1441 1442 1443 1445 1446 1447 1448 1448 1448 1448 1447 1446 1445 1444 1443 1441 1440 1437 1435 1433 1430 1427 1424 1421 1418 1415 1411 1408 1405 1401 1397 1394 1391
1435 1435 1434 1433 1432 1432 1433 1433 1433 1434 1436 1437 1439 1440 1441 1443 1444 1445 1445 1445 1445 1444 1443 1442 1441 1440 1438 1436 1434 1432 1430 1427 1424 1421 1418 1415 1411 1408 1405 1402 1398 1395 1392 1388
1430 1428 1427 1427 1427 1427 1428 1428 1429 1431 1432 1433 1435 1437 1438 1439 1440 1441 1441 1441 1441 1441 1440 1439 1438 1437 1435 1433 1431 1428 1426 1423 1420 1417 1414 1411 1408 1405 1402 1399 1396 1392 1389 1386
1424 1423 1423 1422 1421 1422 1423 1424 1425 1427 1428 1430 1432 1433 1435 1436 1436 1437 1438 1438 1438 1437 1437 1436 1434 1433 1432 1430 1427 1425 1422 1419 1417 1414 1411 1408 1405 1403 1400 1397 1393 1390 1386 1383
1419 1418 1418 1417 1417 1418 1418 1419 1421 1423 1424 1426 1428 1430 1431 1433 1434 1434 1435 1434 1434 1434 1433 1432 1431 1429 1428 1426 1424 1421 1418 1416 1413 1411 1408 1405 1402 1399 1396 1393 1390 1387 1384 1380
1415 1414 1414 1413 1414 1414 1414 1415 1417 1419 1420 1422 1424 1426 1427 1429 1430 1431 1431 1431 1431 1430 1429 1428 1427 1426 1424 1422 1420 1417 1415 1412 1410 1407 1404 1402 1399 1396 1393 1390 1387 1384 1381 1377
1412 1411 1411 1411 1411 1411 1412 1413 1414 1416 1417 1419 1421 1422 1424 1425 1426 1427 1427 1427 1427 1426 1425 1424 1423 1422 1420 1418 1416 1414 1411 1409 1406 1403 1401 1398 1395 1392 1390 1387 1384 1380 1377 1374
1410 1409 1409 1409 1409 1409 1410 1411 1412 1413 1414 1416 1417 1419 1420 1422 1422 1423 1423 1423 1423 1422 1421 1420 1419 1417 1416 1414 1412 1410 1407 1405 1403 1400 1397 1395 1392 1389 1386 1383 1380 1377 1374 1371
1408 1408 1408 1408 1407 1408 1408 1409 1409 1411 1412 1413 1414 1416 1417 1418 1419 1419 1419 1419 1419 1418 1417 1416 1415 1413 1412 1410 1408 1406 1403 1401 1399 1396 1394 1391 1389 1386 1383 1380 1377 1374 1371 1368
1406 1406 1406 1406 1406 1406 1406 1407 1407 1408 1409 1410 1411 1412 1413 1414 1415 1415 1415 1415 1415 1414 1413 1412 1411 1409 1407 1406 1404 1402 1400 1397 1395 1393 1390 1388 1385 1382 1380 1377 1374 1371 1368 1365
1403 1403 1403 1403 1403 1403 1404 1404 1405 1405 1406 1407 1408 1409 1410 1410 1411 1411 1412 1411 1411 1410 1410 1408 1407 1405 1404 1402 1400 1398 1396 1394 1391 1389 1387 1384 1382 1379 1376 1373 1370 1367 1365 1362
1399 1400 1400 1400 1400 1400 1401 1401 1402 1402 1403 1404 1404 1405 1406 1406 1407 1407 1408 1407 1407 1406 1406 1405 1403 1402 1400 1398 1396 1394 1392 1390 1388 1386 1383 1381 1378 1376 1373 1370 1367 1365 1362 1359
1395 1395 1395 1395 1396 1396 1397 1397 1398 1399 1399 1400 1401 1402 1402 1403 1403 1403 1404 1403 1403 1403 1402 1401 1399 1398 1396 1394 1392 1390 1388 1386 1384 1382 1380 1377 1375 1372 1370 1367 1364 1362 1359 1356